STARLINK-36038

Last updated on Mon Dec 15 2025 00:02:11 GMT+0000 (Coordinated Universal Time)

1 66804U 25278P 25348.25003472 -.01288411 00000+0 -66593-2 0 9990 2 66804 42.9973 242.7688 0001903 275.3077 125.7612 15.82890614 3204
UTC large
Height (km)
Speed (km/s)
/
Latitude / Longitude
Inclination (degrees)
Orbital Period (minutes)
Azimuth
Elevation
Range (km)
Doppler Factor

Next 0 passes for location: London (51.5072 / 0.1276)

Sorry there are no passes over London.